When you browse on this site, cookies collect data to enhance your experience and personalize the content and advertising you see.
Visit our Privacy Policy to learn more. By continuing to use the site, you agree to this use of cookies and data.
  • In Austria
  • List of Countries
  • For 7 days
  • Water Temperature
  • Satellite Maps
  • Weather Map
  • News
  • Weather Widgets
  • user-avatar
    Login

    Hourly Weather Korçe

    Today, 18 February, Monday

    Time Temperature Precipitation Wind Pressure Humidity
    00:00 +3°C° 0 mm 1 mps 670 mmHg 58%
    01:00 +2°C° 0 mm 1 mps 670 mmHg 58%
    02:00 +2°C° 0 mm 1 mps 670 mmHg 57%
    03:00 +2°C° 0 mm 1 mps 669 mmHg 57%
    04:00 +2°C° 0 mm 1 mps 669 mmHg 56%
    05:00 +2°C° 0 mm 1 mps 669 mmHg 56%
    06:00 +2°C° 0 mm 1 mps 669 mmHg 56%
    07:00 +2°C° 0 mm 1 mps 669 mmHg 56%
    08:00 +5°C° 0 mm 1 mps 670 mmHg 51%
    09:00 +7°C° 0 mm 1 mps 671 mmHg 46%
    10:00 +8°C° 0 mm 0 mps 672 mmHg 41%
    11:00 +10°C° 0 mm 1 mps 672 mmHg 40%
    12:00 +11°C° 0 mm 1 mps 671 mmHg 39%
    13:00 +12°C° 0 mm 1 mps 671 mmHg 39%
    14:00 +11°C° 0 mm 1 mps 671 mmHg 43%
    15:00 +11°C° 0 mm 1 mps 671 mmHg 47%
    16:00 +10°C° 0 mm 1 mps 670 mmHg 50%
    17:00 +8°C° 0 mm 1 mps 670 mmHg 57%
    18:00 +6°C° 0 mm 0 mps 670 mmHg 64%
    19:00 +4°C° 0 mm 0 mps 669 mmHg 71%
    20:00 +3°C° 0 mm 0 mps 669 mmHg 72%
    21:00 +3°C° 0 mm 0 mps 669 mmHg 73%
    22:00 +3°C° 0 mm 0 mps 669 mmHg 74%
    23:00 +2°C° 0 mm 0 mps 669 mmHg 74%

    Tomorrow, 19 February, Tuesday

    Time Temperature Precipitation Wind Pressure Humidity
    00:00 +2°C° 0 mm 0 mps 669 mmHg 75%
    01:00 +3°C° 0 mm 1 mps 669 mmHg 75%
    02:00 +3°C° 0 mm 1 mps 669 mmHg 76%
    03:00 +3°C° 0 mm 1 mps 669 mmHg 77%
    04:00 +2°C° 0 mm 1 mps 668 mmHg 78%
    05:00 +2°C° 0 mm 1 mps 668 mmHg 78%
    06:00 +2°C° 0 mm 1 mps 669 mmHg 78%
    07:00 +2°C° 0 mm 1 mps 669 mmHg 78%
    08:00 +4°C° 0 mm 1 mps 669 mmHg 69%
    09:00 +7°C° 0 mm 1 mps 670 mmHg 60%
    10:00 +9°C° 0 mm 1 mps 670 mmHg 52%
    11:00 +9°C° 0 mm 1 mps 670 mmHg 49%
    12:00 +10°C° 0 mm 1 mps 670 mmHg 46%
    13:00 +10°C° 0 mm 2 mps 670 mmHg 43%
    14:00 +9°C° 0 mm 2 mps 670 mmHg 46%
    15:00 +9°C° 0 mm 2 mps 669 mmHg 50%
    16:00 +8°C° 0 mm 2 mps 669 mmHg 54%
    17:00 +8°C° 0 mm 1 mps 669 mmHg 63%
    18:00 +6°C° 0 mm 1 mps 668 mmHg 72%
    19:00 +4°C° 0 mm 1 mps 668 mmHg 81%
    20:00 +4°C° 0 mm 1 mps 668 mmHg 83%
    21:00 +2°C° 0 mm 0 mps 668 mmHg 86%
    22:00 +2°C° 0 mm 0 mps 668 mmHg 89%
    23:00 +2°C° 0 mm 0 mps 668 mmHg 89%

    Day after tomorrow, 20 February, Wednesday

    Time Temperature Precipitation Wind Pressure Humidity
    00:00 +1°C° 0 mm 0 mps 668 mmHg 90%
    01:00 +1°C° 0 mm 0 mps 668 mmHg 91%
    02:00 +1°C° 0 mm 0 mps 668 mmHg 91%
    03:00 +1°C° 0 mm 0 mps 668 mmHg 91%
    04:00 0°C° 0 mm 0 mps 667 mmHg 91%
    05:00 0°C° 0 mm 0 mps 668 mmHg 89%
    06:00 0°C° 0 mm 0 mps 668 mmHg 87%
    07:00 +1°C° 0 mm 0 mps 668 mmHg 86%
    08:00 +4°C° 0 mm 1 mps 669 mmHg 73%
    09:00 +5°C° 0 mm 1 mps 669 mmHg 60%
    10:00 +6°C° 0 mm 2 mps 670 mmHg 47%
    11:00 +7°C° 0 mm 2 mps 670 mmHg 46%
    12:00 +8°C° 0 mm 2 mps 670 mmHg 44%
    13:00 +9°C° 0 mm 2 mps 670 mmHg 42%
    14:00 +8°C° 0 mm 2 mps 670 mmHg 47%
    15:00 +8°C° 0 mm 2 mps 670 mmHg 51%
    16:00 +7°C° 0 mm 2 mps 670 mmHg 55%
    17:00 +6°C° 0 mm 2 mps 669 mmHg 64%
    18:00 +4°C° 0 mm 2 mps 669 mmHg 74%
    19:00 +4°C° 0 mm 1 mps 669 mmHg 83%
    20:00 +3°C° 0 mm 1 mps 669 mmHg 85%
    21:00 +3°C° 0 mm 1 mps 669 mmHg 86%
    22:00 +3°C° 0 mm 1 mps 670 mmHg 88%
    23:00 +2°C° 0 mm 1 mps 670 mmHg 87%

    21 February, Thursday

    Time Temperature Precipitation Wind Pressure Humidity
    00:00 +2°C° 0 mm 1 mps 670 mmHg 87%
    01:00 +2°C° 0 mm 1 mps 670 mmHg 87%
    02:00 +2°C° 0 mm 1 mps 670 mmHg 86%
    03:00 +2°C° 0 mm 1 mps 670 mmHg 86%
    04:00 +2°C° 0 mm 1 mps 670 mmHg 85%
    05:00 +2°C° 0 mm 1 mps 670 mmHg 83%
    06:00 +2°C° 0 mm 1 mps 670 mmHg 82%
    07:00 +2°C° 0 mm 1 mps 670 mmHg 80%
    08:00 +4°C° 0 mm 1 mps 671 mmHg 70%
    09:00 +7°C° 0 mm 1 mps 672 mmHg 60%
    10:00 +9°C° 0 mm 1 mps 672 mmHg 50%
    11:00 +10°C° 0 mm 1 mps 672 mmHg 47%
    12:00 +10°C° 0 mm 1 mps 672 mmHg 43%
    13:00 +11°C° 0 mm 1 mps 672 mmHg 40%
    14:00 +11°C° 0 mm 1 mps 672 mmHg 43%
    15:00 +9°C° 0 mm 2 mps 672 mmHg 46%
    16:00 +9°C° 0 mm 2 mps 672 mmHg 49%
    17:00 +7°C° 0 mm 2 mps 671 mmHg 58%
    18:00 +6°C° 0 mm 1 mps 671 mmHg 67%
    19:00 +5°C° 0 mm 1 mps 671 mmHg 75%
    20:00 +4°C° 0 mm 1 mps 671 mmHg 75%
    21:00 +4°C° 0 mm 1 mps 671 mmHg 76%
    22:00 +4°C° 0 mm 1 mps 671 mmHg 76%
    23:00 +3°C° 0 mm 1 mps 671 mmHg 75%

    22 February, Friday

    Time Temperature Precipitation Wind Pressure Humidity
    00:00 +3°C° 0 mm 1 mps 671 mmHg 74%
    01:00 +3°C° 0 mm 1 mps 670 mmHg 73%
    02:00 +3°C° 0 mm 1 mps 670 mmHg 73%
    03:00 +3°C° 0 mm 1 mps 670 mmHg 72%
    04:00 +2°C° 0 mm 1 mps 670 mmHg 71%
    05:00 +3°C° 0 mm 1 mps 670 mmHg 71%
    06:00 +3°C° 0 mm 1 mps 670 mmHg 70%
    07:00 +3°C° 0 mm 1 mps 670 mmHg 70%
    08:00 +5°C° 0 mm 1 mps 671 mmHg 64%
    09:00 +7°C° 0 mm 1 mps 672 mmHg 58%
    10:00 +9°C° 0 mm 1 mps 672 mmHg 51%
    11:00 +10°C° 0 mm 1 mps 672 mmHg 50%
    12:00 +10°C° 0 mm 1 mps 672 mmHg 48%
    13:00 +11°C° 0 mm 1 mps 672 mmHg 46%
    14:00 +10°C° 0 mm 2 mps 672 mmHg 48%
    15:00 +9°C° 0 mm 2 mps 671 mmHg 51%
    16:00 +9°C° 0 mm 2 mps 671 mmHg 53%
    17:00 +7°C° 0 mm 2 mps 671 mmHg 60%
    18:00 +6°C° 0 mm 2 mps 671 mmHg 67%
    19:00 +4°C° 0 mm 2 mps 670 mmHg 74%
    20:00 +4°C° 0 mm 2 mps 670 mmHg 74%
    21:00 +4°C° 0 mm 2 mps 671 mmHg 75%
    22:00 +3°C° 0 mm 2 mps 671 mmHg 76%
    23:00 +3°C° 0 mm 2 mps 670 mmHg 77%

    23 February, Saturday

    Time Temperature Precipitation Wind Pressure Humidity
    00:00 +3°C° 0 mm 2 mps 670 mmHg 78%
    01:00 +2°C° 0 mm 2 mps 670 mmHg 79%
    02:00 +2°C° 0 mm 2 mps 670 mmHg 81%
    03:00 +2°C° 0 mm 2 mps 670 mmHg 83%
    04:00 +1°C° 0 mm 2 mps 670 mmHg 85%
    05:00 +1°C° 0 mm 2 mps 670 mmHg 84%
    06:00 +1°C° 0 mm 2 mps 670 mmHg 82%
    07:00 +1°C° 0 mm 2 mps 670 mmHg 81%
    08:00 +2°C° 0 mm 3 mps 671 mmHg 72%
    09:00 +3°C° 0 mm 3 mps 672 mmHg 64%
    10:00 +5°C° 0 mm 3 mps 672 mmHg 55%
    11:00 +7°C° 0 mm 3 mps 672 mmHg 51%
    12:00 +8°C° 0 mm 3 mps 672 mmHg 46%
    13:00 +9°C° 0 mm 3 mps 672 mmHg 42%
    14:00 +8°C° 0 mm 3 mps 672 mmHg 42%
    15:00 +7°C° 0 mm 3 mps 672 mmHg 42%
    16:00 +7°C° 0 mm 3 mps 672 mmHg 42%
    17:00 +4°C° 0 mm 3 mps 672 mmHg 48%
    18:00 +2°C° 0 mm 3 mps 672 mmHg 55%
    19:00 +2°C° 0 mm 2 mps 671 mmHg 61%
    20:00 +1°C° 0 mm 2 mps 672 mmHg 62%
    21:00 -1°C° 0 mm 2 mps 672 mmHg 63%
    22:00 -1°C° 0 mm 2 mps 672 mmHg 65%
    23:00 -2°C° 0 mm 2 mps 672 mmHg 64%
    Show more